This demonstration page uses our WeatherBlox Daily Observations layout. Learn more.

Left ArrowRight Arrow

41.55636, -103.73856

Hourly Observations for April 16, 2020

Temp ( °F °C ) Dew Point ( °F °C ) Humidity (%) Winds ( mph kmh ) Pressure ( in mb ) Visibility ( mi km ) Precip ( " mm )
6:58 pm 18:58 Cloudy 41 4.8 24 -4.2 53 53 NE 13 20 30.07 1018 10 16 0.00 0.00
7:58 pm 19:58 Cloudy 38 3.6 27 -2.6 64 64 ENE 18 30 30.10 1019 10 16 0.00 0.00
8:58 pm 20:58 Mostly Cloudy 35 1.7 28 -2.2 76 76 ENE 17 28 30.12 1020 10 16 0.00 0.00
9:58 pm 21:58 Mostly Cloudy 33 0.4 27 -2.7 80 80 ENE 14 22 30.13 1020 10 16 0.00 0.00
10:58 pm 22:58 Mostly Cloudy 32 0.2 27 -2.8 81 81 ENE 14 22 30.15 1021 10 16 0.00 0.00
11:58 pm 23:58 Cloudy with Light Snow 31 -0.7 27 -3 85 85 E 13 20 30.14 1021 9 14 0.00 0.00
12:58 am 00:58 Cloudy with Light Snow 29 -1.6 26 -3.2 89 89 E 15 24 30.14 1021 3 4 0.00 0.00
1:58 am 01:58 Cloudy with Snow 29 -1.9 28 -2.5 96 96 ESE 9 15 30.15 1021 2 3 0.00 0.00
2:58 am 02:58 Cloudy with Snow 28 -2.1 27 -2.6 96 96 ESE 13 20 30.11 1020 1 2 0.01 0.25
3:58 am 03:58 Cloudy with Snow 28 -2.3 27 -2.7 97 97 E 13 20 30.12 1020 1 2 0.02 0.51
4:58 am 04:58 Cloudy with Light Snow 27 -2.8 26 -3.3 96 96 E 13 20 30.12 1020 5 8 0.01 0.25
5:58 am 05:58 Mostly Cloudy with Light Snow 27 -3 26 -3.4 97 97 E 12 19 30.12 1020 2 3 0.01 0.25
6:58 am 06:58 Cloudy with Light Snow 27 -3 26 -3.3 98 98 ENE 9 15 30.16 1021 7 11 0.02 0.51
7:58 am 07:58 Cloudy with Snow 25 -4 24 -4.7 95 95 NE 18 30 30.19 1022 5 8 0.01 0.25
8:58 am 08:58 Cloudy with Light Snow 23 -4.8 22 -5.7 94 94 ENE 14 22 30.21 1023 7 11 0.00 0.00
9:58 am 09:58 Mostly Cloudy with Light Snow 23 -4.9 21 -6 92 92 NE 15 24 30.25 1024 1 1 0.01 0.25
10:58 am 10:58 Cloudy with Snow 23 -5.1 21 -6.2 92 92 E 17 28 30.26 1025 5 8 0.01 0.25
11:58 am 11:58 Cloudy with Light Snow 24 -4.6 21 -5.9 91 91 ENE 13 20 30.26 1025 1 2 0.02 0.51
12:58 pm 12:58 Cloudy with Light Snow 24 -4.3 22 -5.8 89 89 ENE 14 22 30.26 1025 1 1 0.04 1.02
1:58 pm 13:58 Cloudy with Light Snow 25 -3.7 23 -5 91 91 NE 8 13 30.29 1026 7 11 0.04 1.02
2:58 pm 14:58 Mostly Cloudy with Light Snow 26 -3.2 24 -4.6 90 90 NNE 10 17 30.29 1026 2 2 0.02 0.51
3:58 pm 15:58 Mostly Cloudy with Light Snow Showers 26 -3.2 22 -5.4 85 85 NNE 7 11 30.32 1027 4 6 0.00 0.00
4:58 pm 16:58 Mostly Cloudy with Mist and Fog 26 -3.1 23 -5.2 86 86 N 5 7 30.32 1027 5 8 0.00 0.00
5:58 pm 17:58 Cloudy with Haze 26 -3.2 22 -5.6 84 84 N 3 6 30.32 1027 5 8 0.00 0.00

Powered by AerisWeather